Location: ??????
(38.0677°N, 22.9870°E)
Time: 09:37:58
(UTC+00:00)

Cosmos 1503 Rocket - Pass Details

Date: 23 May 2024
Orbit: 751 x 788 km, 74.0° (Epoch: 23 June)

Event Time Altitude Azimuth Distance (km) Brightness Sun altitude
Exits shadow 02:23:13 - 199° (SSW) 2,773 6.4 -8.9°
Reaches altitude 10° 02:24:21 10° 200° (SSW) 2,337 6.0 -8.8°
Maximum altitude 02:29:41 82° 288° (WNW) 800 4.1 -7.9°
Drops below altitude 10° 02:35:03 10° 16° (NNE) 2,355 7.3 -7.0°
Sets 02:37:28 0° 18° (NNE) 3,286 8.2 -6.6°
